NOAA 16 DEB, 41218

Orbit data source: Space-Track

NOAA 16 DEB, 41218 is space debris in SSO originally from a launch on Thu, 21 Sep 2000 UTC launched from the Air Force Western Test Range (AFWTR). Debris objects in space refer to the collection of defunct objects orbiting the Earth. Examples of debris include non-operational satellites, rocket bodies, and fragments generated from explosions, collisions, or faulty payload assembly.

Loading next visibility...
Identifier
41218, 2000-055DX
Orbit
SSO
Country
Flag of USUS
Related business
Manufacturer
Unknown
Mission
Spacecraft
Bus & Motor
Unknown
Mass
Unknown
Launch date (UTC)
2000-09-21 (25 years ago)
Launch vehicle
Unknown
Launch site
Air Force Western Test Range (AFWTR)
Object type
Payload
Rocket body
Debris
Shape & HBR
Unknown shape, 0.1 m
Radar Cross Section
Small (<0.1 m²)

Expand to show TLE details & history
Last TLE update: 3 days ago

TLE from 3 days ago
0 NOAA 16 DEB
1 41218U 00055DX  25305.13935032  .00012391  00000-0  38170-2 0  9994
2 41218  98.7839  49.5941 0041189 239.7703 119.9404 14.41092360512408
Epoch: 2025-11-01T03:20Z
TLE epoch observation values (Epoch: 2025-11-01T03:20:39.867Z)
Latitude
-0.00003°
Longitude
-41.24573°
Altitude
772.59 km
Speed
7.46 km/s
True Right ascension
03h 18m 22s
True Declination
0° 00' 00"
Sunlit
Object was in full shadow at epoch
Visualization orbit readout
Latitude
Unknown
Longitude
Unknown
Altitude
Unknown
Speed
Unknown
Apparent Right ascension
Unknown
Apparent Declination
Unknown
Sunlit
N/A
Visualization observer readout
Local Sidereal Time
00:24:43
Azimuth
Unknown
Elevation
Unknown
Doppler factor
Unknown
Orbital elements
Apogee altitude
781.394 km
Perigee altitude
722.657 km
Semi-major axis
7,130.163 km
Eccentricity
0.00412
Inclination
98.7839°
RAAN
49.5941°
Arg. of periapsis
239.7703°
True anomaly
120.34835°
Mean anomaly
119.9404°
Eccentric anomaly
120.14448°
Mean motion
3.60491 °/min
Orbital period
99.86 mins
BSTAR
0.003817
Loading maneuver chart data...
Computing Atmospheric mass density...
Loading historical data...
Loading historical data...
Loading historical data...
Loading historical data...
Loading historical data...
Loading historical data...
Loading historical data...

Documentation

Showing up to 5 results
|